Wind_Speed
80 82 80 82 84 89 92 95 99 104 108 111 111 112 114 117 122 128 130 134 136 136 123 109 101 91 81 74 69 68 59 52 52 55 54 53 56 65 66 71 73 80 86 91
84 86 87 86 88 90 93 99 105 108 109 111 112 114 119 123 129 131 134 139 134 121 114 101 95 85 79 71 67 60 55 47 48 50 48 51 54 62 65 71 72 75 82 89
86 88 85 85 89 95 100 104 107 107 109 111 114 119 123 128 130 134 140 133 119 113 106 95 86 79 75 70 62 56 51 44 43 47 44 47 51 58 63 69 72 73 79 86
80 82 86 89 93 99 103 106 107 107 112 114 119 125 127 129 133 139 132 122 112 102 96 90 83 76 68 63 60 51 45 41 39 44 40 43 48 55 61 67 73 73 76 83
82 88 94 101 104 104 106 107 107 107 112 120 124 129 130 134 140 131 121 114 106 98 91 83 80 71 61 56 53 46 40 37 36 40 38 40 46 53 58 65 73 73 75 81
91 96 99 106 106 105 105 108 108 111 115 120 125 131 135 141 129 121 114 105 100 93 86 80 71 64 57 51 46 43 37 32 33 37 37 38 43 50 56 63 71 73 74 79
98 101 107 111 112 109 107 111 113 113 117 123 129 137 134 125 120 112 106 100 94 88 80 72 63 58 52 47 41 38 35 30 30 35 35 36 41 48 54 60 69 74 74 78
102 106 111 114 114 112 111 115 122 124 125 132 136 130 121 117 112 104 101 95 89 81 73 65 58 54 48 43 39 37 34 32 30 32 34 35 40 46 52 58 66 72 75 78
107 110 115 118 114 114 114 121 127 132 135 138 130 120 115 110 103 99 94 89 81 74 67 60 56 51 45 42 40 37 33 31 31 30 34 35 38 44 50 55 62 69 75 78
113 117 119 118 117 120 121 126 133 134 132 127 119 113 109 103 100 94 89 81 74 68 63 56 51 48 45 41 39 36 34 29 30 30 33 35 37 43 47 55 61 67 73 78
115 118 118 119 120 124 127 134 137 133 125 115 109 107 101 99 93 87 79 74 68 62 58 53 49 47 43 39 35 34 32 30 28 31 32 35 36 41 48 53 58 63 69 75
118 122 123 124 127 130 135 137 129 121 115 108 104 99 95 92 86 79 72 68 63 57 53 51 48 44 40 36 34 32 30 30 30 30 33 34 37 40 45 51 54 59 65 72
123 127 127 131 131 132 134 123 116 113 108 101 98 95 90 84 77 71 66 61 57 53 51 47 43 40 37 35 32 30 29 29 30 30 32 35 37 40 42 47 52 55 60 67
128 130 128 132 135 132 119 114 110 103 98 96 94 87 81 75 70 65 60 57 53 50 47 42 38 36 35 33 31 29 29 29 29 29 31 34 37 40 42 43 47 53 56 61
131 129 134 133 126 115 111 106 100 98 94 89 85 81 75 70 64 59 55 53 50 45 40 39 37 34 33 31 30 28 28 27 26 28 31 33 36 39 42 44 45 48 52 57
130 131 131 120 112 107 102 100 96 90 86 82 76 71 67 62 59 54 51 48 44 41 39 36 34 34 32 29 29 29 27 24 25 27 29 32 35 37 40 43 46 48 50 52
130 128 114 109 105 100 97 92 88 84 77 74 71 66 61 57 53 50 45 41 40 38 36 34 32 31 30 28 27 28 25 23 24 24 27 30 33 35 39 41 44 46 49 51
123 110 108 102 97 94 89 84 80 76 72 68 64 60 56 52 48 44 40 38 36 35 35 33 31 29 29 27 26 25 23 23 23 23 24 27 30 33 36 40 43 45 47 49
110 107 101 97 90 86 82 77 73 69 65 61 59 56 55 49 45 41 37 35 33 33 33 31 28 26 25 24 24 23 21 22 22 22 23 25 28 31 34 36 39 42 45 47
105 100 95 89 86 80 76 71 68 64 60 56 54 51 47 45 42 40 35 32 32 32 30 26 25 22 19 19 20 21 20 20 20 21 22 23 25 28 31 34 37 39 42 44
98 93 88 84 79 74 70 67 62 58 54 52 49 45 43 41 38 36 33 32 32 29 26 24 21 18 18 19 19 18 18 18 19 19 21 22 24 26 29 32 35 37 39 42
90 87 82 78 73 69 65 60 57 54 52 48 45 42 40 36 34 33 32 30 28 26 25 21 19 17 17 17 16 15 15 16 17 18 20 21 22 24 26 29 32 34 36 39
84 81 76 72 68 62 59 56 54 51 47 44 41 39 34 32 31 31 29 25 24 24 23 20 17 16 15 15 15 14 14 15 16 17 18 19 20 21 23 25 28 31 34 36
77 73 69 65 61 59 56 53 49 45 42 40 37 33 32 30 31 29 26 24 22 22 20 18 15 13 13 13 14 14 14 15 15 15 16 17 19 20 21 22 24 26 29 32
73 68 64 60 56 52 50 47 44 42 39 35 31 31 29 29 28 26 24 23 21 19 18 16 14 13 12 12 13 12 12 12 13 14 15 16 17 18 19 20 21 22 25 27
66 62 58 55 52 49 44 42 40 37 32 29 29 27 26 26 25 24 23 21 20 18 16 15 14 13 12 12 12 12 12 11 12 13 14 14 14 15 17 18 19 20 21 24
59 55 52 50 47 44 41 39 36 32 30 29 28 29 28 25 23 22 21 20 19 18 16 15 14 12 12 11 11 11 11 11 11 12 12 13 13 14 14 16 17 18 19 21
Wind_Direction
313 314 314 312 314 312 311 312 312 311 311 312 312 312 313 312 312 312 315 317 317 318 317 317 315 314 312 308 302 298 293 284 276 269 260 252 242 240 234 231 228 225 222 220
313 314 313 312 312 313 312 311 311 311 312 312 312 312 312 312 312 315 316 317 317 317 316 316 314 314 311 307 303 299 293 285 276 267 259 250 241 237 232 229 228 224 222 220
314 313 314 315 315 315 314 312 312 311 311 311 312 312 312 312 314 315 317 317 317 318 317 316 314 313 310 306 302 298 292 285 273 266 256 247 239 235 231 227 226 224 220 219
316 315 316 316 317 314 314 313 312 312 313 312 312 312 312 314 316 316 318 317 318 318 316 315 313 311 309 304 300 296 291 283 270 263 253 244 237 232 229 226 225 223 220 219
316 317 320 321 319 316 314 312 312 313 313 312 312 312 315 314 316 316 316 317 317 317 316 314 313 310 308 303 298 295 289 280 269 261 252 241 235 231 228 225 223 222 220 218
317 318 319 320 319 318 315 315 313 313 314 312 312 313 314 315 316 316 317 316 316 316 315 313 312 309 305 302 299 293 286 278 267 260 251 239 234 230 227 224 224 221 220 217
317 318 319 319 319 318 316 313 313 313 312 313 312 314 315 315 315 316 316 317 316 315 313 312 311 308 305 302 298 291 286 277 265 259 251 242 233 230 226 223 223 221 219 218
316 319 320 320 319 316 316 314 314 313 316 314 316 316 316 315 316 317 317 316 315 314 313 312 311 307 305 302 297 290 284 276 266 257 251 242 233 230 227 222 222 221 220 218
317 318 320 320 317 315 316 313 313 314 316 315 316 316 316 316 316 316 316 316 315 314 312 312 311 308 305 302 295 289 281 272 263 255 251 243 234 229 226 225 221 222 221 220
317 318 320 320 317 316 315 314 315 315 317 314 315 316 316 317 317 316 316 315 314 313 312 311 310 306 304 300 295 289 282 272 263 252 248 243 235 229 226 223 222 220 221 221
319 320 318 317 316 315 315 314 315 316 315 315 315 315 316 316 315 315 315 314 313 313 311 310 308 305 302 299 293 287 280 273 258 251 243 241 236 230 227 226 222 220 221 221
318 319 318 316 316 316 316 314 315 314 314 316 315 316 316 315 316 315 314 313 312 312 311 309 307 304 301 297 292 285 277 270 262 248 244 238 236 232 229 227 227 222 220 222
319 319 317 315 318 317 316 315 314 315 315 316 316 317 316 315 315 314 314 312 312 311 309 307 305 302 299 295 290 283 276 268 259 251 242 239 234 233 230 228 227 226 223 221
318 318 316 318 317 316 316 315 315 316 316 317 316 316 315 314 314 314 314 313 312 309 307 304 301 298 295 292 287 282 275 267 259 253 244 239 236 232 232 229 227 227 226 223
317 318 319 316 317 316 315 315 316 316 317 316 315 315 315 315 315 315 314 312 311 309 307 305 303 298 295 291 286 279 273 269 262 252 246 240 237 235 231 231 229 228 228 226
319 320 317 317 316 316 316 317 316 316 317 316 315 315 315 315 315 315 313 311 309 308 307 304 300 298 295 290 285 280 275 269 261 253 247 243 237 234 234 231 231 230 229 228
319 317 317 317 317 317 317 317 317 316 317 317 316 316 317 317 316 314 313 311 310 308 306 303 300 297 292 287 283 279 277 271 261 253 246 243 239 234 232 233 232 231 231 230
318 318 318 317 318 318 318 318 317 318 318 317 317 318 317 316 315 315 315 313 310 307 305 304 301 295 290 285 281 280 277 269 264 255 245 242 241 237 233 232 233 233 232 232
318 319 319 319 319 319 319 319 319 319 319 319 319 319 319 318 318 317 317 313 310 307 305 305 300 296 290 286 282 281 276 269 264 256 248 242 238 236 235 233 232 233 234 233
319 320 319 320 321 320 320 321 321 321 320 320 320 320 319 319 319 319 319 316 313 310 311 310 306 300 291 283 278 275 271 264 259 254 248 241 236 233 234 235 236 234 235 236
319 320 321 321 321 322 322 322 322 321 321 322 321 321 321 321 320 320 321 319 317 315 317 315 311 301 288 283 281 277 268 263 260 254 246 239 234 233 232 236 238 237 237 236
321 321 322 322 323 324 323 323 324 324 324 324 323 323 322 322 322 323 322 321 320 321 321 319 311 304 297 291 287 283 277 271 264 254 248 244 240 237 236 236 239 241 240 238
323 323 324 324 323 324 326 326 325 325 325 325 325 325 325 325 325 325 325 325 324 325 323 320 312 306 300 295 292 287 278 273 265 256 255 254 250 247 243 242 239 239 239 239
324 324 324 325 327 328 327 326 327 327 327 328 328 328 328 328 328 327 328 330 330 330 326 322 316 308 303 302 298 294 285 273 261 254 254 255 256 254 251 248 243 240 237 235
325 326 328 328 328 328 327 328 328 329 331 331 331 332 332 331 331 332 334 335 335 333 329 323 317 312 307 305 303 301 295 279 265 259 257 255 254 256 258 256 251 246 240 237
327 328 329 328 329 330 331 332 332 331 333 336 338 336 336 338 339 340 340 339 340 337 333 329 322 316 313 311 310 306 300 285 271 268 267 264 262 260 259 259 257 251 247 243
328 330 330 330 332 333 334 334 337 341 343 343 344 347 344 342 343 344 345 346 346 345 341 335 330 325 320 317 314 312 309 301 288 279 275 272 269 265 262 259 259 256 253 249
Height
10525 10514 10503 10493 10480 10465 10454 10442 10427 10410 10396 10379 10363 10346 10329 10314 10294 10272 10252 10235 10212 10194 10176 10165 10142 10128 10116 10106 10096 10083 10082 10079 10076 10072 10076 10081 10086 10089 10102 10112 10124 10135 10151 10171
10507 10495 10484 10474 10462 10448 10434 10419 10404 10387 10369 10353 10337 10320 10301 10285 10266 10246 10228 10205 10185 10167 10148 10134 10115 10103 10089 10081 10070 10065 10058 10060 10054 10053 10058 10061 10067 10071 10082 10093 10104 10118 10135 10155
10490 10478 10466 10455 10443 10426 10411 10397 10382 10367 10350 10332 10313 10294 10276 10256 10240 10219 10199 10175 10156 10139 10120 10102 10095 10083 10070 10057 10050 10046 10040 10040 10038 10034 10040 10043 10049 10055 10064 10075 10087 10101 10118 10137
10474 10461 10448 10434 10423 10406 10390 10376 10362 10345 10323 10304 10285 10266 10246 10229 10211 10190 10166 10147 10130 10115 10099 10083 10069 10061 10053 10040 10030 10028 10026 10023 10022 10018 10025 10029 10033 10039 10047 10056 10070 10085 10103 10119
10457 10444 10427 10411 10402 10384 10367 10350 10337 10326 10304 10280 10257 10231 10219 10200 10181 10161 10139 10122 10102 10090 10076 10063 10048 10039 10034 10024 10015 10011 10010 10008 10006 10004 10009 10014 10018 10024 10032 10042 10052 10069 10086 10103
10437 10423 10408 10391 10375 10363 10343 10323 10310 10298 10282 10257 10233 10212 10193 10173 10153 10134 10115 10100 10083 10067 10055 10041 10031 10021 10013 10006 10001 9995 9995 9995 9993 9991 9995 10001 10006 10011 10019 10029 10038 10054 10071 10087
10420 10403 10386 10367 10347 10336 10320 10298 10285 10274 10258 10232 10207 10189 10168 10146 10127 10112 10089 10076 10061 10048 10035 10022 10014 10003 9996 9991 9987 9982 9981 9981 9981 9979 9983 9988 9993 9998 10006 10016 10025 10039 10055 10070
10399 10382 10364 10344 10326 10308 10293 10270 10248 10230 10225 10198 10179 10159 10139 10118 10099 10080 10065 10052 10039 10026 10015 10005 9996 9987 9982 9976 9972 9969 9968 9968 9969 9969 9970 9976 9982 9986 9993 10003 10012 10024 10038 10052
10379 10360 10342 10321 10301 10282 10268 10242 10222 10202 10186 10164 10145 10128 10108 10091 10075 10062 10047 10032 10018 10007 9997 9987 9978 9971 9966 9962 9958 9956 9956 9956 9957 9958 9959 9964 9970 9974 9982 9991 10001 10011 10022 10036
10357 10336 10317 10298 10277 10256 10241 10219 10198 10176 10160 10139 10118 10098 10082 10067 10050 10037 10024 10012 10000 9989 9978 9971 9964 9957 9952 9949 9946 9943 9942 9944 9945 9947 9949 9953 9958 9963 9969 9975 9985 9996 10007 10020
10332 10312 10293 10274 10254 10232 10215 10192 10171 10146 10128 10112 10096 10076 10061 10045 10030 10018 10005 9992 9982 9973 9963 9956 9950 9944 9940 9936 9934 9932 9930 9931 9934 9935 9939 9942 9947 9952 9956 9963 9971 9982 9994 10006
10310 10289 10269 10249 10229 10208 10189 10164 10143 10120 10099 10089 10070 10053 10040 10024 10009 9997 9986 9975 9965 9957 9949 9942 9936 9931 9927 9924 9922 9920 9920 9920 9921 9925 9928 9931 9935 9940 9945 9951 9959 9969 9978 9989
10285 10264 10243 10222 10203 10179 10158 10136 10116 10096 10076 10059 10046 10030 10016 10003 9992 9981 9970 9958 9950 9942 9935 9930 9923 9918 9915 9913 9910 9909 9908 9908 9910 9912 9916 9920 9924 9928 9933 9940 9947 9955 9965 9975
10261 10238 10216 10197 10174 10152 10130 10109 10090 10072 10055 10037 10019 10010 9999 9986 9974 9963 9954 9943 9936 9930 9922 9917 9913 9909 9905 9902 9900 9898 9897 9897 9899 9902 9905 9908 9913 9917 9922 9928 9935 9942 9950 9960
10234 10213 10190 10166 10146 10124 10104 10085 10067 10049 10033 10019 10005 9988 9976 9966 9957 9948 9939 9930 9922 9916 9911 9904 9900 9897 9893 9891 9889 9888 9887 9888 9890 9891 9893 9897 9901 9906 9911 9917 9923 9929 9936 9945
10204 10187 10163 10137 10119 10100 10080 10062 10045 10028 10014 9998 9986 9976 9963 9952 9942 9933 9926 9917 9910 9903 9898 9894 9890 9886 9883 9880 9878 9877 9878 9879 9880 9881 9883 9886 9890 9895 9899 9904 9910 9916 9923 9931
10173 10157 10137 10116 10095 10076 10058 10040 10024 10009 9995 9981 9967 9957 9947 9937 9928 9921 9914 9906 9898 9892 9887 9884 9880 9876 9873 9870 9869 9867 9868 9869 9870 9872 9874 9876 9879 9884 9888 9892 9897 9903 9910 9917
10145 10126 10107 10089 10072 10054 10036 10021 10005 9990 9976 9964 9952 9941 9933 9925 9916 9909 9902 9895 9888 9883 9877 9873 9870 9866 9863 9861 9859 9859 9859 9859 9860 9862 9865 9867 9869 9873 9878 9882 9886 9891 9897 9903
10118 10099 10081 10065 10049 10033 10016 10001 9986 9973 9961 9949 9937 9926 9917 9909 9903 9897 9892 9885 9879 9874 9869 9865 9861 9857 9854 9852 9851 9851 9851 9851 9851 9853 9856 9858 9860 9863 9867 9871 9876 9880 9885 9891
10093 10075 10059 10042 10026 10011 9997 9983 9970 9958 9947 9937 9926 9916 9908 9900 9892 9885 9881 9876 9870 9865 9860 9856 9852 9849 9847 9845 9844 9843 9843 9843 9844 9845 9847 9850 9853 9855 9858 9861 9865 9870 9874 9878
10071 10054 10038 10023 10008 9994 9980 9968 9956 9945 9935 9925 9916 9907 9898 9890 9884 9877 9872 9866 9861 9856 9852 9848 9845 9842 9840 9838 9837 9837 9836 9836 9836 9838 9839 9842 9845 9848 9850 9852 9854 9858 9863 9867
10051 10035 10019 10005 9991 9979 9966 9955 9944 9933 9923 9914 9905 9898 9890 9883 9876 9870 9865 9859 9853 9849 9845 9842 9839 9836 9835 9833 9832 9831 9831 9830 9831 9832 9833 9835 9837 9840 9842 9844 9845 9848 9851 9855
10033 10018 10004 9991 9977 9966 9953 9943 9932 9923 9914 9905 9897 9890 9883 9876 9870 9864 9859 9854 9848 9843 9839 9836 9833 9831 9829 9828 9827 9826 9826 9825 9825 9826 9827 9828 9830 9832 9834 9836 9838 9840 9841 9843
10018 10004 9990 9979 9964 9952 9943 9933 9924 9915 9907 9898 9890 9883 9877 9871 9865 9859 9853 9848 9844 9839 9835 9832 9829 9827 9826 9824 9823 9822 9821 9820 9820 9821 9822 9822 9823 9824 9826 9827 9829 9831 9833 9836
10002 9990 9977 9966 9956 9947 9936 9926 9917 9908 9900 9893 9886 9879 9873 9867 9861 9854 9849 9844 9839 9836 9832 9829 9826 9824 9822 9821 9819 9818 9817 9816 9816 9817 9817 9818 9818 9818 9819 9819 9820 9822 9824 9827
9991 9979 9967 9956 9947 9937 9929 9920 9911 9903 9895 9888 9882 9876 9870 9864 9857 9851 9846 9841 9837 9833 9829 9826 9824 9821 9820 9818 9816 9814 9813 9812 9812 9813 9813 9813 9813 9814 9813 9813 9814 9815 9816 9818
9981 9971 9960 9949 9940 9931 9923 9914 9906 9897 9890 9884 9878 9871 9866 9860 9855 9850 9845 9840 9835 9831 9828 9824 9822 9819 9817 9815 9814 9812 9811 9809 9809 9809 9809 9809 9808 9808 9808 9808 9808 9809 9809 9811